Showing default

VRSS-2, 42954

Orbit data source: Space-Track

VRSS-2, 42954 is a payload satellite owned by ABAE (VE) in SSO that was launched on Mon, 09 Oct 2017 UTC via a CHANG ZHENG 2D launch vehicle from the Jiuquan Satellite Launch Center, China (JSC). Payload-class satellites include a variety of spacecraft equipped with specific instruments for various scientific and technological missions. These include communications satellites like Starlink; space stations such as the ISS; scientific satellites like the Hubble; Earth observation satellites from companies like Planet Labs, Umbra, and HawkEye 360; GPS; miniature CubeSats for education and research; and military/defense satellites.

Loading next visibility...
Identifier
42954, 2017-060A
Orbit
SSO
Country
Flag of VEVE / VENZ
Related business
Manufacturer
DFH
Mission
Operational Civil Imaging
Bus & Motor
CAST-2000, AOCS
Mass
942 kg wet, ~900 kg dry
Launch date (UTC)
2017-10-09 (9 years ago)
Launch vehicle
CHANG ZHENG 2D
Launch site
Jiuquan Satellite Launch Center, China (JSC)
Object type
Payload
Rocket body
Debris
Shape & HBR
Box + 2 Pan, 4.0 m
Radar Cross Section
8.358 m², Large (>1 m²)

Expand to show TLE details & history
Last TLE update: 22 hours ago

TLE from 22 hours ago
0 VRSS-2
1 42954U 17060A   26172.51058861  .00000525  00000-0  73605-4 0  9997
2 42954  97.6507 210.0432 0018651  85.8924 274.4420 14.81199529469099
Epoch: 2026-06-21T12:15Z
TLE epoch observation values (Epoch: 2026-06-21T12:15:14.855Z)
Latitude
-0.00011°
Longitude
116.5215°
Altitude
627.583 km
Speed
7.545 km/s
True Right ascension
14h 00m 10s
True Declination
0° 00' 00"
Sunlit
Object was in full shadow at epoch
Visualization orbit readout
Latitude
Unknown
Longitude
Unknown
Altitude
Unknown
Speed
Unknown
Apparent Right ascension
Unknown
Apparent Declination
Unknown
Sunlit
N/A
Visualization observer readout
Local Sidereal Time
21:38:55
Azimuth
Unknown
Elevation
Unknown
Doppler factor
Unknown
Orbital elements
Apogee altitude
635.626 km
Perigee altitude
609.512 km
Semi-major axis
7,000.706 km
Eccentricity
0.00187
Inclination
97.6507°
RAAN
210.0432°
Arg. of periapsis
85.8924°
True anomaly
274.22888°
Mean anomaly
274.442°
Eccentric anomaly
274.33544°
Mean motion
3.70536 °/min
Orbital period
97.16 mins
BSTAR
0.000073605
Loading maneuver chart data...
Computing Atmospheric mass density...
Loading historical data...
Loading historical data...
Loading historical data...
Loading historical data...
Loading historical data...
Loading historical data...
Loading historical data...
Other satellites on launch #60 in the year 2017 (2017-10-09 UTC)

Documentation

Showing up to 5 results
|